Regional Weather Roundup
Issued by NWS Huntsville, AL

Home | Current Version | Previous Version | Text Only | Print | Product List | Glossary On
Versions: 1 2 3 4 5 6 7 8 9 10 11 12 13 14 15 16 17 18 19 20 21 22 23 24 25 26 27 28 29 30 31 32 33 34 35 36 37 38 39 40 41 42 43 44 45 46 47 48 49 50
684
ASUS44 KHUN 301010
RWRHUN

WEATHER ROUNDUP FOR THE TENNESSEE VALLEY
NATIONAL WEATHER SERVICE HUNTSVILLE AL
500 AM CDT SAT APR 30 2016

ALZ001>004-301100-
NORTHWEST ALABAMA

CITY           SKY/WX    TMP DP  RH WIND       PRES   REMARKS
COURTLAND HCN    N/A     61 N/A N/A CALM        N/A
RUSSELLVILLE     N/A     61 N/A N/A MISG        N/A
SHOALS AIRPORT NOT AVBL
SHOALS TVA RES   N/A     61 N/A N/A MISG        N/A
$$

ALZ005>007-016-301100-
NORTH CENTRAL ALABAMA

CITY           SKY/WX    TMP DP  RH WIND       PRES   REMARKS
CULLMAN AG STN   N/A     59 N/A N/A CALM        N/A
DECATUR AP     CLOUDY    62  61  96 NE3       29.89F
HUNTSVILLE AP  CLOUDY    64  61  90 CALM      29.89S
HUN NWS/UAH      N/A     63  60  89 E1          N/A
MERIDIANVILLE  CLOUDY    61  55  82 CALM      29.90S
REDSTONE ARSN  CLOUDY    64  59  86 CALM      29.89R
VINEMONT AP    FAIR      63  58  82 E6        29.91F
$$

ALZ008>010-301100-
NORTHEAST ALABAMA

CITY           SKY/WX    TMP DP  RH WIND       PRES   REMARKS
ALBERTVILLE    CLOUDY    59  59 100 CALM      29.91S
FORT PAYNE     CLOUDY    59  55  88 CALM      29.92R
SCOTTSBORO AP  CLOUDY    63  63 100 CALM      29.93R
SCOTTSBORO HCN   N/A     61 N/A N/A MISG        N/A
VALLEY HEAD      N/A     61 N/A N/A MISG        N/A
$$

TNZ076-096-097-301100-
SOUTHEASTERN MIDDLE TENNESSEE

CITY           SKY/WX    TMP DP  RH WIND       PRES   REMARKS
TULLAHOMA      MOCLDY    63  61  94 CALM      29.92S
WINCHESTER     PTCLDY    64  54  68 CALM      29.92R
$$

...SURROUNDING SITES...

CITY           SKY/WX    TMP DP  RH WIND       PRES   REMARKS
ATLANTA        CLOUDY    71  54  54 E3        29.94R
ANNISTON       MOCLDY    65  58  78 N3        29.92S
BIRMINGHAM     CLOUDY    65  60  84 CALM      29.92R
CHATTANOOGA    MOCLDY    64  58  80 CALM      29.94R
DALTON         CLOUDY    61  61 100 CALM      29.94R
GADSDEN        MOCLDY    59  59 100 CALM      29.93R
GOLDEN TRNGL     N/A    N/A N/A N/A MISG        N/A
HALEYVILLE     FAIR      62  59  90 S6        29.90F
JACKSON TN     CLOUDY    63  61  93 VRB3      29.85S
MEMPHIS        CLOUDY    66  62  87 S7        29.82R
NASHVILLE      CLOUDY    64  60  87 CALM      29.90F
OXFORD MS      FAIR      64  61  88 SE10G16   29.85S
ROME           CLOUDY    63  60  90 CALM      29.92S
SAVANNAH       MOCLDY    63  61  94 CALM      29.85F
TUPELO         CLOUDY    64  60  87 SE8       29.85
TUSCALOOSA     CLOUDY    62  62 100 CALM      29.87F
$$

...GULF COAST WEATHER...

CITY           SKY/WX    TMP DP  RH WIND       PRES   REMARKS
GULFPORT       CLOUDY    76  72  87 SE16      29.82F
PASCAGOULA     CLOUDY    75  73  93 SE10      29.83F
MOBILE         MOCLDY    73  73 100 SE9       29.85F
GULF SHORES    CLOUDY    73  73 100 E14       29.86S
DESTIN         CLOUDY    74  73  97 E3        29.88F
PANAMA CITY    FOG       71  71 100 NE3       29.90R VSB 1/2
APPALACHICOLA  FOG       71  71 100 E5        29.90S VSB 1/4
$$





USA.gov is the U.S. government's official web portal to all federal, state and local government web resources and services.